| DS18B20 | SHTC3 | ||||||
|---|---|---|---|---|---|---|---|
| ID | Date d/m/Y & Time | data1 สูง | data2 ต่ำ | data3 นอก | temp pcb | hum pcb | Time |
| 9034 | 05/04/2026 13:13:24 | 33.4  | 31.6  | 35.0  | 32.4  | 64.5  | 13:13 |
| 9033 | 05/04/2026 13:08:43 | 33.4  | 31.5  | 35.0  | 32.3  | 64.4  | 13:08 |
| 9032 | 05/04/2026 13:04:01 | 33.3  | 31.5  | 35.1  | 32.3  | 64.6  | 13:04 |
| 9031 | 05/04/2026 12:59:18 | 33.3  | 31.4  | 34.8  | 32.3  | 64.5  | 12:59 |
| 9030 | 05/04/2026 12:54:36 | 33.2  | 31.4  | 34.9  | 32.3  | 64.6  | 12:54 |
| 9029 | 05/04/2026 12:49:54 | 33.2  | 31.3  | 35.0  | 32.3  | 64.5  | 12:49 |
| 9028 | 05/04/2026 12:45:12 | 33.2  | 31.2  | 34.9  | 32.3  | 64.5  | 12:45 |
| 9027 | 05/04/2026 12:40:31 | 33.1  | 31.2  | 34.9  | 32.1  | 64.5  | 12:40 |
| 9026 | 05/04/2026 12:35:50 | 33.1  | 31.1  | 34.9  | 32.1  | 64.5  | 12:35 |
| 9025 | 05/04/2026 12:31:05 | 33.0  | 31.1  | 35.0  | 32.1  | 64.5  | 12:31 |
| 9024 | 05/04/2026 12:26:23 | 32.9  | 31.0  | 34.7  | 32.0  | 64.3  | 12:26 |
| 9023 | 05/04/2026 12:21:41 | 32.9  | 30.9  | 34.8  | 31.8  | 64.4  | 12:21 |
| 9022 | 05/04/2026 12:16:56 | 32.9  | 30.9  | 34.6  | 32.0  | 64.6  | 12:16 |
| 9021 | 05/04/2026 12:12:14 | 32.8  | 30.8  | 34.7  | 31.7  | 64.4  | 12:12 |
| 9020 | 05/04/2026 12:07:32 | 32.8  | 30.8  | 34.4  | 31.8  | 64.5  | 12:07 |
| 9019 | 05/04/2026 12:02:50 | 32.7  | 30.7  | 34.8  | 31.7  | 64.5  | 12:02 |
| 9018 | 05/04/2026 11:58:06 | 32.6  | 30.6  | 34.9  | 31.7  | 64.6  | 11:58 |
| 9017 | 05/04/2026 11:53:24 | 32.6  | 30.6  | 35.1  | 31.6  | 64.5  | 11:53 |
| 9016 | 05/04/2026 11:48:41 | 32.5  | 30.5  | 34.9  | 31.4  | 64.5  | 11:48 |
| 9015 | 05/04/2026 11:43:58 | 32.4  | 30.4  | 35.4  | 31.4  | 64.5  | 11:43 |
| 9014 | 05/04/2026 11:39:16 | 32.2  | 30.3  | 35.0  | 31.1  | 64.5  | 11:39 |
| 9013 | 05/04/2026 11:34:33 | 32.2  | 30.2  | 35.4  | 31.2  | 64.6  | 11:34 |
| 9012 | 05/04/2026 11:29:51 | 32.1  | 30.1  | 35.1  | 31.1  | 64.7  | 11:29 |
| 9011 | 05/04/2026 11:25:09 | 31.9  | 30.1  | 35.0  | 31.1  | 64.6  | 11:25 |